TimeEDT,TemperatureF,Dew PointF,Humidity,Sea Level PressureIn,VisibilityMPH,Wind Direction,Wind SpeedMPH,Gust SpeedMPH,PrecipitationIn,Events,Conditions,WindDirDegrees,DateUTC
12:16 AM,59.0,55.4,88,30.20,2.5,Calm,Calm,-,N/A,,Clear,0,2011-10-11 04:16:00
12:24 AM,59.0,55.4,88,30.20,4.0,Calm,Calm,-,N/A,,Clear,0,2011-10-11 04:24:00
12:53 AM,57.9,55.9,93,30.21,4.0,Calm,Calm,-,N/A,,Clear,0,2011-10-11 04:53:00
1:09 AM,57.2,55.4,94,30.19,1.2,East,3.5,-,N/A,,Partly Cloudy,80,2011-10-11 05:09:00
1:12 AM,57.2,55.4,94,30.19,0.8,ENE,4.6,-,N/A,,Mist,70,2011-10-11 05:12:00
1:24 AM,55.4,53.6,94,30.18,1.2,ENE,4.6,-,N/A,,Partly Cloudy,70,2011-10-11 05:24:00
1:26 AM,55.4,53.6,94,30.19,3.0,ENE,3.5,-,N/A,,Partly Cloudy,70,2011-10-11 05:26:00
1:53 AM,57.0,53.1,87,30.21,9.0,ENE,4.6,-,N/A,,Clear,70,2011-10-11 05:53:00
2:53 AM,57.0,53.1,87,30.19,6.0,Calm,Calm,-,N/A,,Clear,0,2011-10-11 06:53:00
3:53 AM,54.0,51.1,90,30.19,5.0,Calm,Calm,-,N/A,,Clear,0,2011-10-11 07:53:00
4:53 AM,51.1,48.9,92,30.19,4.0,Calm,Calm,-,N/A,,Clear,0,2011-10-11 08:53:00
6:06 AM,51.8,51.8,100,30.16,1.8,NNW,3.5,-,N/A,,Scattered Clouds,330,2011-10-11 10:06:00
6:08 AM,51.8,51.8,100,30.17,0.8,NNW,3.5,-,N/A,,Mist,330,2011-10-11 10:08:00
6:19 AM,51.8,51.8,100,30.17,2.5,Calm,Calm,-,N/A,,Mostly Cloudy,0,2011-10-11 10:19:00
6:23 AM,51.8,51.8,100,30.17,3.0,Calm,Calm,-,N/A,,Scattered Clouds,0,2011-10-11 10:23:00
6:53 AM,54.0,52.0,93,30.19,4.0,Calm,Calm,-,N/A,,Clear,0,2011-10-11 10:53:00
7:53 AM,52.0,50.0,93,30.21,3.0,NW,3.5,-,N/A,,Clear,310,2011-10-11 11:53:00
8:53 AM,55.9,52.0,87,30.22,6.0,NNW,3.5,-,N/A,,Clear,340,2011-10-11 12:53:00
10:53 AM,63.0,57.0,81,30.20,5.0,NW,3.5,-,N/A,,Haze,310,2011-10-11 14:53:00
11:53 AM,64.9,59.0,81,30.20,5.0,NNW,4.6,-,N/A,,Haze,330,2011-10-11 15:53:00
12:53 PM,69.1,55.9,63,30.18,10.0,ENE,8.1,-,N/A,,Clear,70,2011-10-11 16:53:00
1:53 PM,69.1,55.9,63,30.17,10.0,ENE,5.8,-,N/A,,Clear,60,2011-10-11 17:53:00
2:53 PM,69.1,57.0,65,30.16,10.0,ENE,5.8,-,N/A,,Clear,60,2011-10-11 18:53:00
4:53 PM,69.1,57.9,68,30.14,9.0,ENE,4.6,-,N/A,,Clear,60,2011-10-11 20:53:00
6:53 PM,66.0,59.0,78,30.12,8.0,NE,5.8,-,N/A,,Overcast,50,2011-10-11 22:53:00
7:53 PM,66.0,57.9,75,30.11,7.0,North,4.6,-,N/A,,Overcast,10,2011-10-11 23:53:00
8:53 PM,66.0,57.9,75,30.12,7.0,Calm,Calm,-,N/A,,Overcast,0,2011-10-12 00:53:00
9:53 PM,66.0,55.9,70,30.11,10.0,NE,12.7,-,N/A,,Overcast,50,2011-10-12 01:53:00
10:53 PM,66.0,55.0,68,30.12,10.0,Calm,Calm,-,0.00,Rain,Light Rain,0,2011-10-12 02:53:00
11:53 PM,64.0,55.9,75,30.12,10.0,SE,8.1,-,0.00,,Overcast,130,2011-10-12 03:53:00